Location: Civry
(47.2902°N, 4.6156°E)
Time: 13:04:05
(UTC+00:00)

STARLINK-1270 - Pass Details

Date: 09 April 2020
Orbit: 378 x 381 km, 53.0° (Epoch: 26 May)

Event Time Altitude Azimuth Distance (km) Brightness Sun altitude
Rises 19:48:32 0° 297° (WNW) 2,262 8.8 -14.4°
Reaches altitude 10° 19:50:36 10° 294° (WNW) 1,405 7.1 -14.7°
Maximum altitude 19:53:42 62° 213° (SSW) 435 3.1 -15.1°
Enters shadow 19:54:45 36° 147° (SSE) 625 3.4 -15.3°
